THORAD AGENA D DEB

Satellite information

Favourite Embed

Satellite Type and Status

DEBRISIN ORBIT

Key statistics

Satellite THORAD AGENA D DEB at a glance.

Uptime

20338

Days in orbit

Revolutions

≈ 14.0

Per day

Orbit

SSO

Sun Synchronous Orbit

Inclination

99.9

Latest

Satellite identification and parameters

Extended collection of information and parameters for THORAD AGENA D DEB.

Object identification

Identified? True

Debris? True

Object name: THORAD AGENA D DEB

International designator: 1970-025HT

Object number (NORAD): 4997

Object ID (CCSDS): 4997

Country: UNITED STATES OF AMERICA (US)

Current information (Y/N): Y

RCS size: SMALL

Orbital parameters

Period: 102.834 minutes

Inclination: 99.9397 deg

SMA: 7270.858 km

Apoapsis: 924.094 km

Periapsis: 861.352 km

RAAN: 230.9156 deg

Eccentricy: 0.00431462

Argument of periapsis: 304.9093 deg

Mean anomaly: 54.8018 deg

Mean motion: 14.00310114 rev/day

Mean motion (dot): 0.00002062 rev/day2

B* drag term: 0.0014169717 1/REarth

Two-line elements (TLE)

Creation date: Dec. 12, 2025, 10:14 a.m.

Reference frame: TEME

Reference center: EARTH

Epoch: Dec. 12, 2025, 3:05 a.m. UTC

TLE line 0: 0 THORAD AGENA D DEB

TLE line 1: 1 04997U 70025HT 25346.12904447 .00002062 00000-0 14170-2 0 9999

TLE line 2: 2 04997 99.9397 230.9156 0043146 304.9093 54.8018 14.00310114808332

Live tracking on map

Real-time ground track for satellite THORAD AGENA D DEB.

In-orbit conjunctions

A list of the most updated potential collisions computed for object THORAD AGENA D DEB.

Target Orbit TCA Probability of collision Miss distance Type
CZ-6A DEB LEO 2025-08-05 14:55:53 0.0008637893 21.0 (m) DEBRIS
COSMOS 249 DEB LEO 2025-04-25 02:06:28 0.0001115764 153.0 (m) DEBRIS
FENGYUN 1C DEB SSO 2025-04-16 08:30:46 0.0001274831 79.0 (m) DEBRIS
SL-16 DEB LEO 2025-01-29 18:39:18 0.0003628004 56.0 (m) DEBRIS
SL-3 DEB LEO 2025-01-10 08:04:25 0.0001426071 187.0 (m) DEBRIS

Associated space launch

Meteorological research and development satellite

THORAD AGENA D DEB was lifted into orbit during the mission ‘Thorad SLV-2G Agena D | Nimbus 4’, on board a Thorad SLV-2G Agena D space rocket.

The launch took place on April 8, 1970, 8:17 a.m. from Space Launch Complex 2E.

For more information about the launch, click the button.

Launch to space Thorad SLV-2G Agena D | Nimbus 4
Thorad SLV-2G Agena D | Nimbus 4

Agency: N/A

Status: Launch Successful

Launch date: April 8, 1970, 8:17 a.m. UTC

Rocket: Thorad SLV-2G Agena D

Launch pad: Space Launch Complex 2E

Location: Vandenberg SFB, CA, USA

...

Latest news about this satellite

There are no fresh news available about this satellite. Check back as we update our databases every day.


Newsletter sign-up

Weekly statistics, charts and insights to help you stay on top of the space industry.